Skip Page Navigation
NASA JPL Caltech
NASA Logo - Jet Propulsion Laboratory + View the NASA Portal
+ Near-Earth Object (NEO) Program
Search JPL
JPL Home Earth Solar System Stars & Galaxies Technology
JPL Solar System Dynamics
BODIES ORBITS EPHEMERIDES TOOLS PHYSICAL DATA DISCOVERY FAQ SITE MAP
JPL Small-Body Database Browser
Search: [ help ]  
(2011 DV)
Classification: Aten [NEO, PHA]          SPK-ID: 3557843
Ephemeris | Orbit Diagram | Orbital Elements | Physical Parameters | Close-Approach Data ]

[ hide orbit diagram ]
Orbit Diagram
Note: Make sure you have Java enabled on your browser to see the applet. This applet is provided as a 3D orbit visualization tool. The applet was implemented using 2-body methods, and hence should not be used for determining accurate long-term trajectories (over several years or decades) or planetary encounter circumstances. For accurate long-term ephemerides, please instead use our Horizons system.
Orbit Viewer

Additional Notes: the orbits shown in the applet are color coded. The planets are white lines, and the asteroid/comet is a blue line. The bright white line indicates the portion of the orbit that is above the ecliptic plane, and the darker portion is below the ecliptic plane. Likewise for the asteroid/comet orbit, the light blue indicates the portion above the ecliptic plane, and the dark blue the portion below the ecliptic plane.

Orbit Viewer applet originally written and kindly provided by Osamu Ajiki (AstroArts), and further modified by Ron Baalke (JPL).


Orbital Elements at Epoch 2456400.5 (2013-Apr-18.0) TDB
Reference: JPL 27 (heliocentric ecliptic J2000)
 Element Value Uncertainty (1-sigma)   Units 
e .04965456968690105 5.7838e-07  
a .9567007060202114 4.0569e-07 AU
q .9091961441436234 9.2693e-07 AU
i 10.59482547579485 0.00021301 deg
node 35.16097834013895 9.7533e-05 deg
peri 350.6511974567023 0.00065007 deg
M 238.1870039552831 0.0011493 deg
tp 2456516.152145198520
(2013-Aug-11.65214520)
0.0011576 JED
period 341.7925313665501
0.94
0.00021741
5.952e-07
d
yr
n 1.053270528061725 6.6996e-07 deg/d
Q 1.004205267896799 4.2584e-07 AU
  Orbit Determination Parameters
   # obs. used (total)      132  
   data-arc span      364 days  
   first obs. used      2011-02-22  
   last obs. used      2012-02-21  
   planetary ephem.      DE405  
   SB-pert. ephem.      SB405-CPV-2  
   condition code      2  
   fit RMS      .55981  
   data source      ORB  
   producer      Otto Matic  
   solution date      2012-Feb-21 23:50:12  

Additional Information
 Earth MOID = .00250717 AU 
 T_jup = 6.281 
[ show covariance matrix ]

Ephemeris | Orbit Diagram | Orbital Elements | Physical Parameters | Close-Approach Data ]

Physical Parameter Table
Parameter Symbol Value Units Sigma Reference Notes
absolute magnitude H 20.665 mag .54791 27 autocmod 2.5b

[ show close-approach data ]
Ephemeris | Orbit Diagram | Orbital Elements | Physical Parameters | Close-Approach Data ]
ABOUT SSD CREDITS/AWARDS PRIVACY/COPYRIGHT GLOSSARY LINKS
FirstGov 2013-Jun-19 07:15 UT
(server date/time)  
NASA Home Page
Site Manager:   Donald K. Yeomans
Webmaster  Alan B. Chamberlin